Location: Newark
(52.1752°N, 10.4140°W)
Time: 12:43:12
(UTC+00:00)

N. Korean satellite - Pass Details

Date: 20 November 2019
Orbit: 456 x 506 km, 97.2° (Epoch: 05 December)

Event Time Altitude Azimuth Distance (km) Brightness Sun altitude
Rises 05:40:41 0° 26° (NNE) 2,621 10.6 -22.4°
Reaches altitude 10° 05:43:19 10° 46° (NE) 1,725 9.9 -22.0°
Maximum altitude 05:45:56 18° 90° (E) 1,287 9.6 -21.6°
Drops below altitude 10° 05:48:31 10° 135° (SE) 1,701 10.0 -21.2°
Sets 05:51:05 0° 155° (SSE) 2,569 10.7 -20.8°
